SCP
-0 -0 -0 -0 -0 -0 -0 -0 -0 -0 -0 -0 -0 -0 -0 -0 -0 0 0 0 0 0 0 0 0 0 0 0 0 0 0 0 0 0 -0 -0 -0 -0 -0 -0 0 0 0 0 0
-0 -0 -0 -0 -0 -0 -0 -0 -0 -0 -0 -0 -0 -0 -0 0 0 0 0 0 0 0 0 0 0 0 0 0 0 0 0 0 0 0 0 -0 0 -0 0 0 0 0 0 0 -0
-0 -0 -0 -0 -0 -0 -0 -0 -0 -0 -0 -0 -0 0 0 -0 0 0 0 0 0 0 0 0 0 0 0 0 0 0 0 0 0 0 0 -0 -0 -0 -0 0 0 0 0 0 4
-0 -0 -0 -0 -0 -0 -0 -0 -0 -0 0 0 0 -0 -0 -0 0 0 0 0 0 -0 0 0 0 0 0 0 0 0 0 0 0 0 0 0 -0 -0 0 -0 -0 0 0 0 1
-0 -0 -0 -0 -0 -0 -0 -0 -0 -0 -0 0 -0 -0 -0 0 0 0 0 0 0 -0 -0 -0 0 0 0 0 0 0 0 0 0 0 0 0 -0 -0 -0 -0 -0 -0 0 0 0
-0 -0 -0 -0 -0 -0 -0 -0 -0 -0 -0 0 -0 -0 -0 0 0 0 0 0 0 0 0 0 0 -0 0 0 0 0 0 0 0 0 0 0 -0 -0 -0 -0 -0 -0 -0 -0 0
-0 -0 -0 -0 -0 -0 -0 -0 -0 0 0 0 -0 -0 -0 0 -0 -0 0 -0 -0 0 -0 -0 0 0 0 0 0 0 0 0 0 0 0 0 0 -0 -0 -0 -0 -0 -0 0 0
-0 -0 -0 -0 -0 -0 0 -0 0 -0 -0 -0 -0 -0 -0 0 0 0 0 0 0 0 0 0 0 0 0 0 0 0 0 -0 -0 0 0 0 0 -0 0 0 -0 -0 -0 0 0
-0 -0 -0 -0 -0 -0 -0 -0 -0 0 -0 -0 -0 -0 -0 -0 0 0 0 0 0 0 0 0 0 0 0 0 0 0 0 -0 -0 -0 0 0 0 0 -0 0 -0 -0 -0 0 0
-0 -0 -0 -0 -0 -0 -0 0 0 0 -0 -0 -0 0 -0 -0 0 0 0 0 0 0 0 0 0 0 0 0 0 0 0 0 0 0 0 -0 0 -0 0 -0 -0 -0 -0 -0 0
-0 -0 -0 -0 -0 -0 0 0 0 0 0 0 -0 0 -0 0 0 0 0 0 0 0 0 0 0 0 0 0 0 0 0 0 0 0 0 -0 -0 -0 -0 -0 -0 -0 -0 0 0
-0 -0 -0 -0 -0 -0 0 0 0 0 0 -0 -0 -0 0 0 0 0 0 0 0 0 0 0 0 0 0 0 0 0 0 0 0 0 0 0 -0 -0 -0 -0 -0 -0 0 0 0
-0 -0 -0 -0 -0 0 0 0 -0 0 0 0 -0 -0 -0 0 0 0 0 0 0 0 0 0 0 0 0 0 0 0 0 0 0 0 0 0 0 0 -0 -0 -0 -0 0 0 0
-0 -0 -0 -0 0 0 0 -0 0 0 0 0 0 0 0 0 0 0 0 0 0 0 0 0 0 0 0 0 0 0 0 0 0 0 0 0 0 -0 -0 0 0 0 0 0 0
-0 -0 0 0 0 0 0 -0 0 0 0 0 0 0 0 0 0 0 0 0 0 0 0 0 0 0 0 0 0 0 0 0 0 0 0 0 0 0 -0 0 0 0 -0 0 0
-0 -0 -0 0 0 0 0 0 0 0 0 0 0 0 0 0 0 0 0 0 0 0 0 0 0 0 0 0 0 0 0 0 0 0 0 0 0 0 -0 0 0 0 0 0 0
-0 -0 -0 0 0 0 0 0 0 0 0 0 0 0 0 0 0 0 0 0 0 0 -0 0 0 0 0 0 0 0 0 0 0 0 0 0 0 0 -0 0 0 0 0 0 0
-0 0 0 0 0 0 0 0 0 0 0 0 0 0 0 0 0 0 0 0 0 -0 0 0 0 0 0 0 0 0 0 0 0 0 0 0 0 0 -0 0 0 0 0 0 0
0 0 0 0 0 0 0 0 0 0 0 0 0 0 0 0 0 0 0 0 0 0 0 0 0 0 0 0 0 0 0 0 0 0 0 0 0 0 -0 -0 -0 -0 0 0 0
0 0 0 0 0 0 0 0 0 0 0 0 0 0 0 0 0 0 0 0 0 0 0 0 0 0 0 0 0 0 0 0 0 0 0 0 0 0 0 0 0 -0 0 0 0
0 0 0 0 0 0 0 0 0 0 0 0 0 0 0 0 0 0 0 0 0 0 0 0 0 0 0 0 0 0 0 0 0 0 0 0 0 0 0 0 0 0 0 0 0
0 0 0 0 0 0 0 0 0 0 0 0 0 0 0 0 0 0 0 0 0 0 0 0 0 0 0 0 0 0 0 0 0 0 0 0 0 0 0 -0 -0 0 -0 0 0
0 0 0 0 0 0 0 0 0 0 0 0 0 0 0 0 0 0 0 0 0 0 0 0 0 0 0 0 0 0 0 0 0 0 0 0 0 0 -0 0 -0 -0 -0 0 0
0 0 0 0 0 0 0 0 0 0 0 0 0 0 0 0 0 0 0 0 0 0 0 0 0 0 0 0 0 0 0 0 0 0 0 0 0 0 -0 -0 -0 -0 -0 0 0
0 0 0 0 0 0 0 0 0 0 0 0 0 0 0 0 0 0 0 0 0 0 0 0 0 0 0 0 -0 -0 -0 0 0 0 0 0 0 0 -0 -0 -0 -0 0 0 0
0 0 0 0 0 0 0 0 0 0 0 0 0 0 0 0 0 0 0 0 0 0 0 0 0 0 0 0 0 -0 0 0 0 0 0 0 0 0 0 0 0 -0 0 0 0
0 0 0 0 0 0 0 0 0 0 0 0 0 0 0 0 0 0 0 0 0 0 0 0 0 0 0 0 0 0 0 0 0 0 0 0 0 0 0 0 -0 -0 -0 0 0
Wind_Speed_500mb
43 39 33 31 35 33 32 26 23 19 15 17 20 29 49 54 52 48 45 35 41 46 42 30 22 18 12 5 6 2 4 4 8 7 16 30 24 52 49 44 37 33 62 63 96
43 37 33 30 33 32 31 31 32 28 17 16 19 38 48 52 51 48 37 36 29 38 33 34 33 27 8 6 2 5 5 8 11 9 20 53 52 66 47 65 47 60 64 65 34
48 38 33 28 28 26 25 29 30 31 24 19 21 32 29 18 23 35 31 35 27 25 33 33 32 21 8 11 6 2 8 9 25 45 44 38 40 63 41 43 37 54 79 51 14
49 38 36 30 25 22 23 25 26 25 30 29 37 31 18 3 9 24 22 25 30 32 31 23 26 20 6 5 15 7 15 20 17 43 42 27 44 41 57 40 52 54 60 61 49
51 39 37 33 27 21 20 21 22 22 27 30 29 30 31 30 21 25 22 23 28 37 37 37 20 17 3 12 14 8 8 21 45 43 55 57 40 40 73 51 50 54 57 56 46
52 41 36 32 27 23 18 19 15 21 28 32 31 31 25 26 25 26 25 25 25 27 28 27 29 27 14 10 5 24 32 39 43 47 37 28 35 38 56 43 44 43 45 45 45
53 43 33 28 27 24 18 13 11 17 19 17 20 28 35 23 25 21 15 29 27 25 34 29 24 23 33 10 23 25 12 15 14 29 20 31 21 19 41 57 43 51 55 52 39
55 44 31 23 20 25 18 6 13 15 12 12 12 18 13 21 25 12 14 22 42 24 28 27 24 16 7 15 15 9 6 10 14 26 26 12 23 17 40 55 49 43 52 58 53
57 45 29 21 16 19 24 7 13 11 8 7 9 10 6 20 21 6 16 29 33 20 11 27 12 8 8 6 11 9 13 15 16 17 16 11 28 14 46 46 45 41 52 58 59
61 47 28 21 15 22 25 15 12 7 6 6 7 4 3 19 30 11 17 25 28 33 11 18 9 7 8 10 11 15 14 13 22 17 25 24 31 18 41 42 44 49 46 53 63
63 48 28 16 15 23 31 20 6 3 4 1 1 5 17 18 34 11 18 25 12 16 3 10 9 7 14 11 15 15 11 14 27 21 13 21 24 25 32 37 32 45 51 58 64
65 52 24 5 10 20 27 16 15 6 8 13 12 19 27 25 20 13 22 11 7 8 3 10 4 6 15 15 11 14 15 16 15 16 20 29 35 32 23 23 31 44 60 60 63
65 55 25 1 4 12 19 21 17 17 2 8 9 10 9 29 11 20 32 16 7 9 12 6 10 17 15 17 11 6 11 13 23 26 18 19 27 18 25 27 56 43 56 66 54
65 59 23 5 3 8 12 14 12 9 8 5 2 3 24 21 9 27 34 13 9 9 13 5 11 15 18 4 12 10 8 20 30 12 22 8 25 51 30 33 24 35 39 38 43
66 58 21 14 4 6 8 7 2 4 5 2 4 9 22 16 14 25 30 11 6 5 9 11 10 14 7 6 9 14 24 25 20 25 10 17 8 13 12 19 21 14 22 30 41
66 52 10 14 8 5 7 5 3 9 3 3 5 11 13 21 7 28 24 17 13 5 5 20 13 4 4 8 7 22 18 15 5 5 5 9 1 13 20 14 21 29 39 40 42
66 38 7 17 12 13 13 9 8 9 6 9 8 10 1 12 9 12 8 12 8 11 9 13 12 11 6 25 16 15 12 9 11 7 10 9 12 10 25 28 27 20 34 46 44
63 32 4 15 17 14 8 8 5 1 1 0 7 8 5 11 6 14 12 4 11 4 4 9 14 7 12 14 11 9 2 6 10 6 16 18 8 6 12 25 35 33 43 54 63
63 31 4 16 20 17 8 8 12 7 5 4 10 7 7 4 4 13 8 2 3 3 4 8 11 13 19 7 3 10 5 8 10 7 8 8 9 5 24 28 42 61 65 66 70
61 25 5 15 25 18 7 7 8 9 10 5 4 3 5 7 8 10 4 2 9 7 7 3 15 11 9 7 4 7 2 5 4 8 9 10 8 6 25 33 37 41 56 64 69
46 9 3 17 17 5 6 9 7 14 19 11 12 7 10 7 5 4 8 9 6 9 4 4 7 14 11 3 4 4 6 8 8 7 7 9 10 5 18 25 31 30 54 58 59
29 8 11 11 1 4 3 3 6 10 21 7 8 11 12 10 6 7 11 14 13 10 6 9 5 10 14 23 16 8 5 6 6 6 7 7 10 8 8 14 30 39 55 58 56
37 15 6 16 3 5 11 8 9 4 9 11 12 11 6 11 2 11 8 16 19 10 8 11 4 9 18 10 5 5 9 7 14 6 9 7 8 3 20 34 51 49 52 56 49
13 7 9 6 8 9 6 10 7 3 5 10 10 4 1 7 13 9 11 9 4 19 30 20 7 13 11 21 26 18 26 16 6 7 10 16 25 23 30 42 48 60 57 53 52
8 8 3 7 4 3 6 5 7 7 6 17 7 12 12 5 6 12 10 6 11 4 8 9 9 8 23 34 33 32 35 4 6 18 10 17 25 31 29 36 51 64 60 55 53
11 8 4 10 21 4 12 9 10 2 7 10 10 12 13 14 22 19 9 10 12 7 10 7 7 9 17 28 16 26 14 4 12 15 24 21 33 22 36 39 42 52 57 61 66
17 17 10 11 5 3 9 9 9 10 13 24 12 6 11 22 41 46 44 46 21 13 12 10 5 5 9 19 22 6 11 1 16 20 9 11 10 19 24 26 43 49 41 65 70
Wind_Direction_500mb
11 9 12 15 16 20 18 33 30 21 18 39 53 84 88 77 67 57 47 44 43 46 47 40 30 20 16 54 198 119 28 275 279 320 277 318 328 309 312 291 297 305 307 317 314
12 12 12 13 16 18 27 26 19 17 26 59 85 122 99 83 69 56 43 37 46 39 33 34 29 28 28 30 359 126 109 245 215 290 307 308 304 304 305 300 295 305 307 331 327
13 15 14 13 16 23 28 23 22 22 26 59 91 142 138 108 62 30 37 42 44 41 35 28 18 31 39 349 320 26 198 276 308 310 312 308 307 311 299 288 307 305 304 313 264
12 12 10 12 15 23 24 22 24 40 64 81 96 92 170 340 72 23 27 29 33 23 30 17 15 8 22 4 328 310 284 285 305 313 317 304 304 298 290 301 309 300 296 293 280
10 9 9 12 15 28 23 18 32 71 71 97 101 90 86 85 61 21 15 20 14 10 14 4 13 349 0 292 299 212 256 297 302 300 299 297 289 278 282 304 315 311 303 302 270
9 8 9 15 28 28 27 14 47 92 93 95 90 85 81 72 41 18 20 13 356 13 12 4 351 349 287 253 182 271 275 288 305 311 307 287 292 304 293 305 329 325 321 303 303
9 6 9 19 29 24 36 29 78 106 96 102 98 84 63 53 25 22 56 23 6 356 356 5 344 335 312 300 330 288 309 324 307 309 295 306 293 292 308 310 329 323 320 319 311
8 6 6 16 33 35 30 58 112 113 107 91 96 86 78 37 15 13 5 347 1 16 37 12 358 355 355 323 348 356 33 333 275 294 293 296 291 266 315 321 318 318 321 316 310
7 6 2 10 23 22 23 122 142 104 110 113 95 99 45 19 5 338 337 349 9 23 24 10 2 28 16 49 1 3 285 289 297 290 288 238 292 286 304 305 306 302 314 313 314
4 4 0 358 14 13 19 136 143 127 154 98 100 115 348 343 349 290 324 339 8 3 357 359 7 34 31 55 301 277 295 278 283 289 295 284 278 275 283 292 296 300 308 307 304
1 3 1 7 21 19 30 110 114 149 118 127 274 292 268 316 342 267 332 334 337 356 26 353 35 331 294 251 237 264 247 259 290 281 307 282 287 285 281 282 286 296 305 308 299
358 359 359 19 43 36 35 57 44 27 309 238 263 278 283 301 311 297 336 313 292 316 356 20 259 241 280 287 284 285 301 294 282 287 286 292 289 283 271 267 264 291 302 303 302
356 356 356 279 93 24 38 33 18 346 63 298 246 295 336 333 335 22 10 325 277 315 321 213 250 327 331 324 353 281 259 286 298 299 272 269 282 279 274 262 281 275 288 298 294
355 350 352 1 235 14 39 6 4 358 70 303 312 17 345 345 97 35 13 347 329 313 339 311 312 339 326 322 11 315 280 295 298 312 290 93 292 278 283 277 261 270 290 343 353
353 346 338 12 281 344 337 314 24 326 60 24 41 347 7 34 319 349 16 352 33 356 49 273 278 314 292 289 302 254 316 288 268 277 306 308 231 298 315 283 271 335 5 2 356
352 344 357 2 18 9 336 221 156 49 156 306 18 350 9 354 46 353 42 19 50 28 326 310 306 295 245 324 313 309 317 288 353 76 352 269 44 314 337 329 10 3 357 344 357
352 347 18 24 20 7 343 156 36 110 346 328 318 346 358 346 9 2 58 29 48 12 329 314 304 304 56 340 326 359 12 337 350 1 234 324 330 246 351 5 0 346 356 357 3
352 346 330 9 359 350 358 63 119 109 44 322 310 306 80 16 345 343 8 40 34 75 305 348 329 13 330 316 264 308 236 172 282 279 295 313 238 262 16 348 342 348 357 4 2
347 344 242 8 356 338 328 65 189 197 175 314 329 9 321 46 312 10 345 176 109 27 78 325 263 291 298 354 11 326 31 303 274 273 277 248 261 305 325 343 350 355 352 355 355
345 351 121 335 332 321 70 213 195 171 152 135 153 230 305 289 12 21 306 256 170 169 148 263 290 279 316 7 9 132 157 289 300 286 278 271 255 259 339 351 349 346 341 349 349
345 357 34 336 324 293 150 224 234 212 180 163 204 213 229 283 227 252 252 289 196 203 196 186 176 291 342 225 290 358 312 255 260 233 275 308 277 203 13 347 340 337 335 340 345
347 339 344 332 341 57 146 244 275 237 207 201 157 192 200 216 284 261 228 212 263 164 261 191 239 277 271 295 284 177 247 260 268 264 248 262 268 100 23 348 340 338 335 337 339
331 291 313 344 127 327 314 298 258 248 193 174 198 207 183 188 335 212 233 265 264 197 203 181 234 306 332 2 360 320 275 248 293 263 235 267 265 14 1 348 340 335 334 333 336
315 331 309 39 104 116 11 266 265 305 213 173 204 203 218 208 218 255 236 282 244 248 262 170 184 193 243 278 296 287 290 294 250 262 309 256 302 327 347 337 332 331 331 331 330
265 257 247 288 302 39 178 254 273 272 244 187 208 208 174 236 268 233 244 254 280 282 84 127 222 200 253 270 275 272 283 267 263 283 257 305 309 326 346 327 322 320 325 332 334
266 263 258 277 290 221 175 230 210 309 225 240 207 227 176 186 201 266 242 181 223 201 151 192 249 251 275 279 278 274 248 303 275 287 278 293 294 354 321 322 321 322 321 326 327
246 255 263 257 248 153 230 202 208 341 263 237 208 199 229 234 246 258 257 257 227 189 185 179 229 271 264 334 313 234 183 172 307 294 264 278 309 318 320 322 324 317 317 324 318
Wind_Speed_850mb
43 39 33 31 35 33 32 26 23 19 15 17 20 29 49 54 52 48 45 35 41 46 42 30 22 18 12 5 6 2 4 4 8 7 16 30 24 52 49 44 37 33 62 63 96
43 37 33 30 33 32 31 31 32 28 17 16 19 38 48 52 51 48 37 36 29 38 33 34 33 27 8 6 2 5 5 8 11 9 20 53 52 66 47 65 47 60 64 65 34
48 38 33 28 28 26 25 29 30 31 24 19 21 32 29 18 23 35 31 35 27 25 33 33 32 21 8 11 6 2 8 9 25 45 44 38 40 63 41 43 37 54 79 51 14
49 38 36 30 25 22 23 25 26 25 30 29 37 31 18 3 9 24 22 25 30 32 31 23 26 20 6 5 15 7 15 20 17 43 42 27 44 41 57 40 52 54 60 61 49
51 39 37 33 27 21 20 21 22 22 27 30 29 30 31 30 21 25 22 23 28 37 37 37 20 17 3 12 14 8 8 21 45 43 55 57 40 40 73 51 50 54 57 56 46
52 41 36 32 27 23 18 19 15 21 28 32 31 31 25 26 25 26 25 25 25 27 28 27 29 27 14 10 5 24 32 39 43 47 37 28 35 38 56 43 44 43 45 45 45
53 43 33 28 27 24 18 13 11 17 19 17 20 28 35 23 25 21 15 29 27 25 34 29 24 23 33 10 23 25 12 15 14 29 20 31 21 19 41 57 43 51 55 52 39
55 44 31 23 20 25 18 6 13 15 12 12 12 18 13 21 25 12 14 22 42 24 28 27 24 16 7 15 15 9 6 10 14 26 26 12 23 17 40 55 49 43 52 58 53
57 45 29 21 16 19 24 7 13 11 8 7 9 10 6 20 21 6 16 29 33 20 11 27 12 8 8 6 11 9 13 15 16 17 16 11 28 14 46 46 45 41 52 58 59
61 47 28 21 15 22 25 15 12 7 6 6 7 4 3 19 30 11 17 25 28 33 11 18 9 7 8 10 11 15 14 13 22 17 25 24 31 18 41 42 44 49 46 53 63
63 48 28 16 15 23 31 20 6 3 4 1 1 5 17 18 34 11 18 25 12 16 3 10 9 7 14 11 15 15 11 14 27 21 13 21 24 25 32 37 32 45 51 58 64
65 52 24 5 10 20 27 16 15 6 8 13 12 19 27 25 20 13 22 11 7 8 3 10 4 6 15 15 11 14 15 16 15 16 20 29 35 32 23 23 31 44 60 60 63
65 55 25 1 4 12 19 21 17 17 2 8 9 10 9 29 11 20 32 16 7 9 12 6 10 17 15 17 11 6 11 13 23 26 18 19 27 18 25 27 56 43 56 66 54
65 59 23 5 3 8 12 14 12 9 8 5 2 3 24 21 9 27 34 13 9 9 13 5 11 15 18 4 12 10 8 20 30 12 22 8 25 51 30 33 24 35 39 38 43
66 58 21 14 4 6 8 7 2 4 5 2 4 9 22 16 14 25 30 11 6 5 9 11 10 14 7 6 9 14 24 25 20 25 10 17 8 13 12 19 21 14 22 30 41
66 52 10 14 8 5 7 5 3 9 3 3 5 11 13 21 7 28 24 17 13 5 5 20 13 4 4 8 7 22 18 15 5 5 5 9 1 13 20 14 21 29 39 40 42
66 38 7 17 12 13 13 9 8 9 6 9 8 10 1 12 9 12 8 12 8 11 9 13 12 11 6 25 16 15 12 9 11 7 10 9 12 10 25 28 27 20 34 46 44
63 32 4 15 17 14 8 8 5 1 1 0 7 8 5 11 6 14 12 4 11 4 4 9 14 7 12 14 11 9 2 6 10 6 16 18 8 6 12 25 35 33 43 54 63
63 31 4 16 20 17 8 8 12 7 5 4 10 7 7 4 4 13 8 2 3 3 4 8 11 13 19 7 3 10 5 8 10 7 8 8 9 5 24 28 42 61 65 66 70
61 25 5 15 25 18 7 7 8 9 10 5 4 3 5 7 8 10 4 2 9 7 7 3 15 11 9 7 4 7 2 5 4 8 9 10 8 6 25 33 37 41 56 64 69
46 9 3 17 17 5 6 9 7 14 19 11 12 7 10 7 5 4 8 9 6 9 4 4 7 14 11 3 4 4 6 8 8 7 7 9 10 5 18 25 31 30 54 58 59
29 8 11 11 1 4 3 3 6 10 21 7 8 11 12 10 6 7 11 14 13 10 6 9 5 10 14 23 16 8 5 6 6 6 7 7 10 8 8 14 30 39 55 58 56
37 15 6 16 3 5 11 8 9 4 9 11 12 11 6 11 2 11 8 16 19 10 8 11 4 9 18 10 5 5 9 7 14 6 9 7 8 3 20 34 51 49 52 56 49
13 7 9 6 8 9 6 10 7 3 5 10 10 4 1 7 13 9 11 9 4 19 30 20 7 13 11 21 26 18 26 16 6 7 10 16 25 23 30 42 48 60 57 53 52
8 8 3 7 4 3 6 5 7 7 6 17 7 12 12 5 6 12 10 6 11 4 8 9 9 8 23 34 33 32 35 4 6 18 10 17 25 31 29 36 51 64 60 55 53
11 8 4 10 21 4 12 9 10 2 7 10 10 12 13 14 22 19 9 10 12 7 10 7 7 9 17 28 16 26 14 4 12 15 24 21 33 22 36 39 42 52 57 61 66
17 17 10 11 5 3 9 9 9 10 13 24 12 6 11 22 41 46 44 46 21 13 12 10 5 5 9 19 22 6 11 1 16 20 9 11 10 19 24 26 43 49 41 65 70
Wind_Direction_850mb
11 9 12 15 16 20 18 33 30 21 18 39 53 84 88 77 67 57 47 44 43 46 47 40 30 20 16 54 198 119 28 275 279 320 277 318 328 309 312 291 297 305 307 317 314
12 12 12 13 16 18 27 26 19 17 26 59 85 122 99 83 69 56 43 37 46 39 33 34 29 28 28 30 359 126 109 245 215 290 307 308 304 304 305 300 295 305 307 331 327
13 15 14 13 16 23 28 23 22 22 26 59 91 142 138 108 62 30 37 42 44 41 35 28 18 31 39 349 320 26 198 276 308 310 312 308 307 311 299 288 307 305 304 313 264
12 12 10 12 15 23 24 22 24 40 64 81 96 92 170 340 72 23 27 29 33 23 30 17 15 8 22 4 328 310 284 285 305 313 317 304 304 298 290 301 309 300 296 293 280
10 9 9 12 15 28 23 18 32 71 71 97 101 90 86 85 61 21 15 20 14 10 14 4 13 349 0 292 299 212 256 297 302 300 299 297 289 278 282 304 315 311 303 302 270
9 8 9 15 28 28 27 14 47 92 93 95 90 85 81 72 41 18 20 13 356 13 12 4 351 349 287 253 182 271 275 288 305 311 307 287 292 304 293 305 329 325 321 303 303
9 6 9 19 29 24 36 29 78 106 96 102 98 84 63 53 25 22 56 23 6 356 356 5 344 335 312 300 330 288 309 324 307 309 295 306 293 292 308 310 329 323 320 319 311
8 6 6 16 33 35 30 58 112 113 107 91 96 86 78 37 15 13 5 347 1 16 37 12 358 355 355 323 348 356 33 333 275 294 293 296 291 266 315 321 318 318 321 316 310
7 6 2 10 23 22 23 122 142 104 110 113 95 99 45 19 5 338 337 349 9 23 24 10 2 28 16 49 1 3 285 289 297 290 288 238 292 286 304 305 306 302 314 313 314
4 4 0 358 14 13 19 136 143 127 154 98 100 115 348 343 349 290 324 339 8 3 357 359 7 34 31 55 301 277 295 278 283 289 295 284 278 275 283 292 296 300 308 307 304
1 3 1 7 21 19 30 110 114 149 118 127 274 292 268 316 342 267 332 334 337 356 26 353 35 331 294 251 237 264 247 259 290 281 307 282 287 285 281 282 286 296 305 308 299
358 359 359 19 43 36 35 57 44 27 309 238 263 278 283 301 311 297 336 313 292 316 356 20 259 241 280 287 284 285 301 294 282 287 286 292 289 283 271 267 264 291 302 303 302
356 356 356 279 93 24 38 33 18 346 63 298 246 295 336 333 335 22 10 325 277 315 321 213 250 327 331 324 353 281 259 286 298 299 272 269 282 279 274 262 281 275 288 298 294
355 350 352 1 235 14 39 6 4 358 70 303 312 17 345 345 97 35 13 347 329 313 339 311 312 339 326 322 11 315 280 295 298 312 290 93 292 278 283 277 261 270 290 343 353
353 346 338 12 281 344 337 314 24 326 60 24 41 347 7 34 319 349 16 352 33 356 49 273 278 314 292 289 302 254 316 288 268 277 306 308 231 298 315 283 271 335 5 2 356
352 344 357 2 18 9 336 221 156 49 156 306 18 350 9 354 46 353 42 19 50 28 326 310 306 295 245 324 313 309 317 288 353 76 352 269 44 314 337 329 10 3 357 344 357
352 347 18 24 20 7 343 156 36 110 346 328 318 346 358 346 9 2 58 29 48 12 329 314 304 304 56 340 326 359 12 337 350 1 234 324 330 246 351 5 0 346 356 357 3
352 346 330 9 359 350 358 63 119 109 44 322 310 306 80 16 345 343 8 40 34 75 305 348 329 13 330 316 264 308 236 172 282 279 295 313 238 262 16 348 342 348 357 4 2
347 344 242 8 356 338 328 65 189 197 175 314 329 9 321 46 312 10 345 176 109 27 78 325 263 291 298 354 11 326 31 303 274 273 277 248 261 305 325 343 350 355 352 355 355
345 351 121 335 332 321 70 213 195 171 152 135 153 230 305 289 12 21 306 256 170 169 148 263 290 279 316 7 9 132 157 289 300 286 278 271 255 259 339 351 349 346 341 349 349
345 357 34 336 324 293 150 224 234 212 180 163 204 213 229 283 227 252 252 289 196 203 196 186 176 291 342 225 290 358 312 255 260 233 275 308 277 203 13 347 340 337 335 340 345
347 339 344 332 341 57 146 244 275 237 207 201 157 192 200 216 284 261 228 212 263 164 261 191 239 277 271 295 284 177 247 260 268 264 248 262 268 100 23 348 340 338 335 337 339
331 291 313 344 127 327 314 298 258 248 193 174 198 207 183 188 335 212 233 265 264 197 203 181 234 306 332 2 360 320 275 248 293 263 235 267 265 14 1 348 340 335 334 333 336
315 331 309 39 104 116 11 266 265 305 213 173 204 203 218 208 218 255 236 282 244 248 262 170 184 193 243 278 296 287 290 294 250 262 309 256 302 327 347 337 332 331 331 331 330
265 257 247 288 302 39 178 254 273 272 244 187 208 208 174 236 268 233 244 254 280 282 84 127 222 200 253 270 275 272 283 267 263 283 257 305 309 326 346 327 322 320 325 332 334
266 263 258 277 290 221 175 230 210 309 225 240 207 227 176 186 201 266 242 181 223 201 151 192 249 251 275 279 278 274 248 303 275 287 278 293 294 354 321 322 321 322 321 326 327
246 255 263 257 248 153 230 202 208 341 263 237 208 199 229 234 246 258 257 257 227 189 185 179 229 271 264 334 313 234 183 172 307 294 264 278 309 318 320 322 324 317 317 324 318